Location: Wingville
(42.9917°N, 90.4915°W)
Time: 17:49:38
(UTC+00:00)

CUBESAT XI-V - Pass Details

Date: 05 July 2022
Orbit: 668 x 690 km, 98.1° (Epoch: 18 August)

Event Time Altitude Azimuth Distance (km) Brightness Sun altitude
Exits shadow 06:59:40 20° 115° (ESE) 1,549 ? -23.1°
Maximum altitude 07:02:00 31° 68° (ENE) 1,169 ? -23.0°
Drops below altitude 10° 07:06:02 10° 7° (N) 2,106 ? -22.8°
Sets 07:08:27 0° 357° (N) 3,023 ? -22.7°
